Flag Weather past 2 weeks in Castrop-Rauxel, North Rhine-Westphalia, Germany

Now
41 °F

Passing clouds.


Feels Like: 38 °F
Forecast: 39 / 49 °F
Wind: 5 mph from East

Location: Dortmund / Wickede

Current Time: Nov 28, 2014 at 12:33:18 AM

Latest Report: Nov 27, 2014 at 10:50 PM


Visibility: N/A

Pressure: 29.77 "Hg

Humidity: 93%

Dew point: 39 °F

Location of Castrop-RauxelLocation

Historic Weather in Castrop-Rauxel — Graph

°F

Castrop-Rauxel temperature yesterday

Maximum temperature yesterday: 46 °F (at 1:50 PM)
Minimum temperature yesterday: 39 °F (at 6:50 AM)
Average temperature yesterday: 43 °F

Past Weeks' High & Low Weather Summary

 TemperatureHumidityPressure
High61 °F (Nov 23, 11:20 AM)93% (Nov 13, 7:20 AM)30.33 "Hg (Nov 13, 7:20 AM)
Low32 °F (Nov 21, 5:20 AM)55% (Nov 23, 11:20 AM)29.50 "Hg (Nov 16, 12:50 PM)
Average46 °F81%29.95 "Hg
* Reported Nov 12 10:20 PM — Nov 27 10:50 PM, Castrop-Rauxel, Weather by CustomWeather, © 2014

Note: Actual official high and low records may vary slightly from our data, if they occured in-between our weather recording intervals... More about our weather records

Advertising

Castrop-Rauxel weather history for previous 24 hours

 ConditionsComfort  
Time TempWeatherWind HumidityBarometerVisibility
10:50 PM
Nov 27
41 °FPassing clouds.5 mph93%29.77 "HgN/A
10:20 PM43 °FClear.5 mph87%29.77 "Hg10 mi
9:50 PM43 °FClear.5 mph87%29.77 "Hg10 mi
9:20 PM43 °FPassing clouds.3 mph87%29.77 "HgN/A
8:50 PM43 °FPassing clouds.6 mph87%29.77 "HgN/A
8:20 PM43 °FClear.5 mph87%29.77 "Hg10 mi
7:50 PM43 °FPassing clouds.6 mph87%29.77 "HgN/A
7:20 PM43 °FClear.5 mph87%29.77 "HgN/A
6:50 PM43 °FClear.6 mph87%29.77 "HgN/A
6:20 PM43 °FClear.5 mph81%29.77 "Hg10 mi
5:50 PM43 °FPartly cloudy.5 mph81%29.77 "HgN/A
5:20 PM43 °FClear.5 mph81%29.77 "Hg10 mi
4:50 PM43 °FClear.5 mph87%29.77 "Hg10 mi
4:20 PM45 °FSunny.6 mph81%29.77 "Hg10 mi
3:50 PM45 °FSunny.5 mph81%29.77 "Hg10 mi
3:20 PM45 °FSunny.6 mph81%29.77 "Hg10 mi
2:50 PM45 °FPassing clouds.6 mph81%29.77 "HgN/A
2:20 PM46 °FScattered clouds.5 mph76%29.77 "HgN/A
1:50 PM46 °FPartly sunny.5 mph76%29.77 "HgN/A
1:20 PM45 °FPartly sunny.2 mph81%29.77 "HgN/A
12:50 PM45 °FBroken clouds.5 mph81%29.77 "HgN/A
12:20 PM45 °FSunny.5 mph76%29.80 "Hg10 mi
11:50 AM45 °FPartly sunny.2 mph76%29.80 "HgN/A
11:20 AM45 °FPartly sunny.2 mph81%29.80 "HgN/A
10:50 AM43 °FPartly sunny.2 mph81%29.80 "HgN/A
10:20 AM43 °FPartly sunny.5 mph81%29.80 "HgN/A
9:50 AM43 °FPartly sunny.3 mph81%29.80 "HgN/A
9:20 AM41 °FPartly sunny.3 mph87%29.80 "HgN/A
8:50 AM41 °FPartly sunny.3 mph87%29.83 "HgN/A
8:20 AM39 °FPartly sunny.2 mph93%29.80 "HgN/A
7:50 AM41 °FPassing clouds.3 mph87%29.80 "HgN/A
7:20 AM39 °FPassing clouds.5 mph87%29.80 "HgN/A
6:50 AM39 °FClear.5 mph87%29.80 "Hg10 mi
6:20 AM41 °FPassing clouds.5 mph81%29.83 "HgN/A
5:50 AM41 °FPassing clouds.1 mph81%29.83 "HgN/A
5:20 AM41 °FPassing clouds.3 mph81%29.83 "HgN/A
Weather by CustomWeather, © 2014

See weather overviewHow to use our weather pages